F4JFI-13 Weather Reports


time (UTC)temp
C
wind
direction
speed
KPH
gust
KPH
rain 1hr
cm
rain 24hr
cm
rain mn
cm
humidity
%
barometer
mb
20260504185209 16 278 1.6 0.0 0.00 0.00 0.00 86 1008.6
20260504184208 16 308 1.6 0.0 0.00 0.00 0.00 86 1008.4
20260504183208 16 300 0.0 0.0 0.00 0.00 0.00 86 1008.4
20260504182217 16 322 0.0 0.0 0.00 0.00 0.00 86 1008.2
20260504181208 16 320 0.0 0.0 0.00 0.00 0.00 86 1008.0
20260504180208 16 322 0.0 0.0 0.00 0.00 0.00 84 1008.0
20260504175209 16 324 0.0 0.0 0.00 0.00 0.00 84 1007.8
20260504174208 16 6 0.0 0.0 0.00 0.00 0.00 84 1008.0
20260504173208 16 294 0.0 0.0 0.00 0.00 0.00 84 1008.0
20260504172213 16 176 0.0 0.0 0.00 0.00 0.00 84 1008.0
20260504171208 17 186 1.6 0.0 0.00 0.00 0.00 84 1008.2
20260504170208 17 302 0.0 0.0 0.00 0.00 0.00 82 1008.2
20260504160208 17 278 1.6 0.0 0.00 0.00 0.00 78 1008.0
20260504150208 18 220 1.6 0.0 0.00 0.00 0.00 76 1007.8
20260504141209 20 164 1.6 0.0 0.00 0.00 0.00 70 1007.6
20260504140209 20 194 1.6 0.0 0.00 0.00 0.00 70 1007.6
20260504130208 21 126 1.6 0.0 0.00 0.00 0.00 66 1007.8
20260504120208 20 160 3.2 0.0 0.00 0.00 0.00 72 1008.2
20260504110207 18 178 1.6 0.0 0.00 0.00 0.00 78 1009.0
20260504100207 16 148 1.6 0.0 0.00 0.00 0.00 88 1009.4
20260504081208 14 104 0.0 0.0 0.00 0.00 0.00 94 1009.4
20260504080208 14 104 1.6 0.0 0.00 0.00 0.00 94 1009.4
20260504070208 13 112 0.0 0.0 0.00 0.00 0.00 94 1009.6
20260504060208 13 108 1.6 0.0 0.05 0.00 0.00 94 1009.2
20260504050208 13 136 0.0 0.0 0.10 0.00 0.00 96 1009.0
20260504045208 13 136 0.0 0.0 0.00 0.00 0.00 96 1009.0
20260504044208 13 112 0.0 0.0 0.00 0.00 0.00 96 1009.0
20260504043208 13 132 0.0 0.0 0.00 0.00 0.00 96 1009.0
20260504042213 13 112 0.0 0.0 0.00 0.00 0.00 96 1009.0
20260504041208 13 112 0.0 0.0 0.00 0.00 0.00 96 1009.2
20260504040208 13 112 0.0 0.0 0.00 0.00 0.00 94 1009.2
20260504035208 13 112 0.0 0.0 0.00 0.00 0.00 94 1009.2
20260504034208 13 112 0.0 0.0 0.00 0.00 0.00 94 1009.2
20260504033208 13 112 0.0 0.0 0.00 0.00 0.00 94 1009.4
20260504032213 13 112 0.0 0.0 0.00 0.00 0.00 94 1009.4
20260504031208 13 112 0.0 0.0 0.00 0.00 0.00 94 1009.4
20260504030208 13 112 0.0 0.0 0.05 0.00 0.00 94 1009.4
20260504025208 13 112 0.0 0.0 0.00 0.00 0.00 94 1009.4
20260504024207 13 112 0.0 0.0 0.00 0.00 0.00 94 1009.4
20260504023208 13 112 0.0 0.0 0.00 0.00 0.00 94 1009.4
20260504022218 13 112 0.0 0.0 0.00 0.00 0.00 94 1009.2
20260504021208 13 112 0.0 0.0 0.00 0.00 0.00 94 1009.2
20260504020208 13 112 0.0 0.0 0.10 0.00 0.00 94 1009.4
20260504015207 13 112 1.6 0.0 0.00 0.00 0.00 94 1009.4
20260504014208 13 118 1.6 0.0 0.00 0.00 0.00 94 1009.4
20260504013208 13 104 1.6 0.0 0.00 0.00 0.00 94 1009.4
20260504012217 13 118 1.6 0.0 0.00 0.00 0.00 94 1009.6
20260504011209 13 124 1.6 0.0 0.00 0.00 0.00 94 1009.6
20260504010208 13 96 1.6 0.0 0.05 0.00 0.00 94 1009.8
20260504005208 13 112 0.0 0.0 0.00 0.00 0.00 94 1009.8
20260504004208 13 190 0.0 0.0 0.00 0.00 0.00 94 1009.8
20260504003207 13 190 0.0 0.0 0.00 0.00 0.00 94 1009.8
20260504002218 13 190 0.0 0.0 0.00 0.00 0.00 94 1009.8
20260504001208 14 196 0.0 0.0 0.00 0.00 0.00 94 1010.0
20260504000208 14 196 0.0 0.0 0.10 0.00 0.00 94 1010.0
20260503235208 14 196 0.0 0.0 0.00 0.00 0.00 94 1010.2
20260503234208 14 196 0.0 0.0 0.00 0.00 0.00 94 1010.2
20260503233208 14 198 0.0 0.0 0.00 0.00 0.00 94 1010.4
20260503232218 14 198 0.0 0.0 0.00 0.00 0.00 94 1010.4
20260503231208 14 198 0.0 0.0 0.00 0.00 0.00 94 1010.6
20260503230208 14 198 0.0 0.0 0.03 0.00 0.00 94 1010.6
20260503225208 14 198 0.0 0.0 0.00 0.00 0.00 94 1010.8
20260503224208 14 198 0.0 0.0 0.00 0.00 0.00 94 1010.8
20260503223208 14 198 0.0 0.0 0.00 0.00 0.00 94 1011.0
20260503222219 14 198 0.0 0.0 0.00 0.00 0.00 94 1011.0
20260503221208 14 198 0.0 0.0 0.00 0.00 0.00 94 1011.0
20260503220208 14 198 0.0 0.0 0.38 0.00 0.00 94 1011.0
20260503215208 14 198 0.0 0.0 0.00 0.00 0.00 94 1011.0
20260503214208 14 198 0.0 0.0 0.00 0.00 0.00 94 1011.2
20260503213208 14 198 0.0 0.0 0.00 0.00 0.00 94 1011.2
20260503212217 14 72 1.6 0.0 0.00 0.00 0.00 92 1011.2
20260503211208 14 108 1.6 0.0 0.00 0.00 0.00 94 1011.2
20260503210208 14 130 0.0 0.0 0.38 0.00 0.00 92 1011.2
20260503205208 14 130 0.0 0.0 0.00 0.00 0.00 94 1011.4
20260503204208 14 124 0.0 0.0 0.00 0.00 0.00 94 1011.2
20260503203208 14 124 0.0 0.0 0.00 0.00 0.00 94 1011.0
20260503202213 14 124 0.0 0.0 0.00 0.00 0.00 92 1011.2
20260503201208 14 164 0.0 0.0 0.00 0.00 0.00 92 1011.0
20260503200208 14 164 0.0 0.0 0.38 0.00 0.00 92 1011.0
20260503195208 14 164 0.0 0.0 0.00 0.00 0.00 92 1010.8
20260503194209 14 164 0.0 0.0 0.00 0.00 0.00 92 1010.8
20260503193208 14 164 1.6 0.0 0.00 0.00 0.00 92 1010.8
20260503192208 14 194 3.2 0.0 0.00 0.00 0.00 90 1010.6
20260503191208 14 166 0.0 0.0 0.00 0.00 0.00 90 1010.4
20260503190208 15 46 0.0 0.0 0.23 0.00 0.00 90 1010.0